TOURFACTS.DK  
Stats and Facts from Tour de France.

Tour de France 2018 starts in 258 days
  Riders   Stages   Teams   Summits   Yearly  


 
Search by year

 2017 - St. 21:  14824 starters.
  5131 different riders.
  634 teams.
  2232 stages.
  454 restdays.
  439589.60 km.
  5653 abandonnees.


Top 3
Christopher Froome86:20:55
Rigoberto Uran86:21:49
Romain Bardet86:23:15
Warren Barguil169 pt.
Primoz Roglic80 pt.
Thomas De Gendt64 pt.
Michael Matthews359 pt.
André Greipel234 pt.
Edvald Boasson Hagen220 pt.
Simon Yates86:27:09
Louis Meintjes86:29:15
Emanuel Buchmann86:54:16
Facts from Tour de France 2015
  |   Stages.  |   Stage winners.  |   Days in yellow  |   Average speed.  |   Route.  |   Teams.  |   All riders.  |   Rookies.  |   Withdrawls.  |  

  |   GC.  |   Polka  |   Green  |   White  |   Summits. (In tour)  |   Summits. (Points)  |   Miscellaneous.  |  

Stage 18 on 23 - 07 - 2015
         Owning:    Christopher Froome      Christopher Froome      Peter Sagan      Nairo Quintana  

Pick a stage:  1 2 3 4 5 6 7 8 9 10 11 12 13 14 15 16 17 18 19 20 21
  GapSaint-Jean-de-Maurienne | Dist: 185.00 km.
Cat: 2Col BayardESPJoaquim Rodriguez
5 points
 
Cat: 3Rampe du MottyESPJoaquim Rodriguez
2 points
 
Cat: 3Côte de la MureESPJoaquim Rodriguez
2 points
 
Cat: 3Col de MalissolESPJoaquim Rodriguez
2 points
 
Cat: 2Col de la MorteESPJoaquim Rodriguez
5 points
 
Cat: HCol du GlandonFRARomain Bardet
25 points
 
Cat: 2Lacets de MontvernierFRARomain Bardet
5 points
 

Average speed for all riders in stage:  33,858 km./hr.
    Place:Name:Team:Time:Km/h:
FRARomain BardetFRAAg2r La Mondiale05:03:40  +  00:00:00=36,553 
FRAPierre RollandFRATeam Europcar05:04:13  +  00:00:33=36,487 
COLWinner AnaconaESPMovistar Team05:04:39  +  00:00:59=36,435 
4 LUXBob JungelsUSATrek Factory Racing05:04:39  +  00:00:59=36,435 
5 SUIJakob FuglsangKAZAstana Pro Team05:04:39  +  00:00:59=36,435 
6 BELSerge PauwelsZAFMTN - Qhubeka P/B Samsung05:04:41  +  00:01:01=36,431 
7 FRACyril GautierFRATeam Europcar05:05:30  +  00:01:50=36,334 
8 ITADamiano CarusoUSABMC Racing Team05:05:30  +  00:01:50=36,334 
9 USAAndrew TalanskyUSATeam Cannondale - Garmin05:05:35  +  00:01:55=36,324 
10 FRAWarren BarguilDEUTeam Giant Alpecin05:06:42  +  00:03:02=36,192 
11 NEDRobert GesinkNLDTeam Lotto NL - Jumbo05:06:42  +  00:03:02=36,192 
12 KENChristopher FroomeGBRSky Procycling05:06:42  +  00:03:02=36,192 
13 ESPAlejandro ValverdeESPMovistar Team05:06:42  +  00:03:02=36,192 
14 WALGeraint ThomasGBRSky Procycling05:06:42  +  00:03:02=36,192 
15 ESPAlberto ContadorRUSTinkoff Saxo05:06:42  +  00:03:02=36,192 
16 SUIMathias FrankCHEIAM Cycling05:06:42  +  00:03:02=36,192 
17 COLNairo QuintanaESPMovistar Team05:06:42  +  00:03:02=36,192 
18 ITAVincenzo NibaliKAZAstana Pro Team05:06:42  +  00:03:02=36,192 
19 ITAMichele ScarponiKAZAstana Pro Team05:06:42  +  00:03:02=36,192 
20 ESPSamuel SanchezUSABMC Racing Team05:07:01  +  00:03:21=36,154 
21 NEDBauke MollemaUSATrek Factory Racing05:07:01  +  00:03:21=36,154 
22 ESPRubén PlazaITALampre-Merida05:08:52  +  00:05:12=35,938 
23 POLRafal MajkaRUSTinkoff Saxo05:09:13  +  00:05:33=35,897 
24 URSTanel KangertKAZAstana Pro Team05:10:12  +  00:06:32=35,783 
25 FRAMickaël CherelFRAAg2r La Mondiale05:10:25  +  00:06:45=35,758 
26 CZELeopold KönigGBRSky Procycling05:10:36  +  00:06:56=35,737 
27 RSAJacques Janse Van RensburgZAFMTN - Qhubeka P/B Samsung05:11:40  +  00:08:00=35,615 
28 CANRyder HesjedalUSATeam Cannondale - Garmin05:12:12  +  00:08:32=35,554 
29 ESPJonathan CastroviejoESPMovistar Team05:12:40  +  00:09:00=35,501 
30 CZEJan BártaDEUBora-Argon 1805:12:59  +  00:09:19=35,465 
31 FRAFlorian VachonFRABretagne - Séché Environnement05:12:59  +  00:09:19=35,465 
32 FRAThomas VoecklerFRATeam Europcar05:12:59  +  00:09:19=35,465 
33 CZERoman KreuzigerRUSTinkoff Saxo05:13:02  +  00:09:22=35,459 
34 NEDSteven KruijswijkNLDTeam Lotto NL - Jumbo05:14:43  +  00:11:03=35,270 
35 ESPJoaquim RodriguezRUSTeam Katusha05:18:06  +  00:14:26=34,895 
36 BELJan BakelantsFRAAg2r La Mondiale05:18:31  +  00:14:51=34,849 
37 SUIDanilo WyssUSABMC Racing Team05:18:31  +  00:14:51=34,849 
38 PORNelson OliveiraITALampre-Merida05:18:31  +  00:14:51=34,849 
39 FRAPierre-Luc PérichonFRABretagne - Séché Environnement05:19:21  +  00:15:41=34,758 
40 FRANicolas RocheGBRSky Procycling05:19:21  +  00:15:41=34,758 
41 NEDWout PoelsGBRSky Procycling05:19:21  +  00:15:41=34,758 
42 ESPGorka Izaguirre InsaustiESPMovistar Team05:19:45  +  00:16:05=34,715 
43 NEDStef ClementCHEIAM Cycling05:19:49  +  00:16:09=34,707 
44 FRAThibaut PinotFRAFDJ05:19:52  +  00:16:12=34,702 
45 ESPLuis Angel MateFRACofidis – Solutions Crédits05:20:36  +  00:16:56=34,623 
46 ENGDaniel MartinUSATeam Cannondale - Garmin05:20:51  +  00:17:11=34,596 
47 RSAReinardt Janse Van RensburgZAFMTN - Qhubeka P/B Samsung05:21:08  +  00:17:28=34,565 
48 BELThomas De GendtBELLotto Soudal05:22:13  +  00:18:33=34,449 
49 ITADaniel OssUSABMC Racing Team05:22:24  +  00:18:44=34,429 
50 AUTGeorg PreidlerDEUTeam Giant Alpecin05:22:24  +  00:18:44=34,429 
51 SUIMarcel WyssCHEIAM Cycling05:22:24  +  00:18:44=34,429 
52 NEDBram TankinkNLDTeam Lotto NL - Jumbo05:22:24  +  00:18:44=34,429 
53 AUSRichie PorteGBRSky Procycling05:22:24  +  00:18:44=34,429 
54 AUSMichael RogersRUSTinkoff Saxo05:22:24  +  00:18:44=34,429 
55 AUSMichael MatthewsAUSOrica - GreenEDGE05:22:24  +  00:18:44=34,429 
56 ENGSimon YatesAUSOrica - GreenEDGE05:22:24  +  00:18:44=34,429 
57 GERPaul MartensNLDTeam Lotto NL - Jumbo05:22:24  +  00:18:44=34,429 
58 FRARomain SicardFRATeam Europcar05:22:24  +  00:18:44=34,429 
59 SUIMichael SchärUSABMC Racing Team05:22:24  +  00:18:44=34,429 
60 FRAChristophe RiblonFRAAg2r La Mondiale05:22:24  +  00:18:44=34,429 
61 FRAJean-Christophe PeraudFRAAg2r La Mondiale05:22:24  +  00:18:44=34,429 
62 ESPImanol ErvitiESPMovistar Team05:22:24  +  00:18:44=34,429 
63 NEDLieuwe WestraKAZAstana Pro Team05:24:37  +  00:20:57=34,194 
64 FRAMatthieu LadagnousFRAFDJ05:25:28  +  00:21:48=34,105 
65 FRAPierrick FédrigoFRABretagne - Séché Environnement05:31:08  +  00:27:28=33,521 
66 FRAFrédéric BrunFRABretagne - Séché Environnement05:31:08  +  00:27:28=33,521 
67 FRAJérémy RoyFRAFDJ05:31:08  +  00:27:28=33,521 
68 FRAPerrig QuemeneurFRATeam Europcar05:31:08  +  00:27:28=33,521 
69 DENLars BakBELLotto Soudal05:31:08  +  00:27:28=33,521 
70 FRAAnthony DelaplaceFRABretagne - Séché Environnement05:31:08  +  00:27:28=33,521 
71 SUIReto HollensteinCHEIAM Cycling05:31:08  +  00:27:28=33,521 
72 ESPHaimar ZubeldiaUSATrek Factory Racing05:31:08  +  00:27:28=33,521 
73 SUIMartin ElmigerCHEIAM Cycling05:31:08  +  00:27:28=33,521 
74 SUIGregory RastUSATrek Factory Racing05:31:08  +  00:27:28=33,521 
75 UKRAndriy GrivkoKAZAstana Pro Team05:31:08  +  00:27:28=33,521 
76 SLOKristjan KorenUSATeam Cannondale - Garmin05:31:08  +  00:27:28=33,521 
77 DENMichael ValgrenRUSTinkoff Saxo05:31:08  +  00:27:28=33,521 
78 ITAManuel QuinziatoUSABMC Racing Team05:31:08  +  00:27:28=33,521 
79 ITAGiampaolo CarusoRUSTeam Katusha05:31:08  +  00:27:28=33,521 
80 NEDWilco KeldermanNLDTeam Lotto NL - Jumbo05:31:08  +  00:27:28=33,521 
81 BELSep VanmarckeNLDTeam Lotto NL - Jumbo05:31:08  +  00:27:28=33,521 
82 KAZDmitriy GruzdevKAZAstana Pro Team05:31:08  +  00:27:28=33,521 
83 ESPMarkel IrizarUSATrek Factory Racing05:31:08  +  00:27:28=33,521 
84 BELTim WellensBELLotto Soudal05:31:08  +  00:27:28=33,521 
85 AUSRohan DennisUSABMC Racing Team05:31:08  +  00:27:28=33,521 
86 NEDKoen De KortDEUTeam Giant Alpecin05:31:08  +  00:27:28=33,521 
87 ESPJosé Herrada LópezESPMovistar Team05:31:08  +  00:27:28=33,521 
88 WALLuke RoweGBRSky Procycling05:31:08  +  00:27:28=33,521 
89 COLJulián ArredondoUSATrek Factory Racing05:31:08  +  00:27:28=33,521 
90 COLJarlinson Pantano GomezCHEIAM Cycling05:31:08  +  00:27:28=33,521 
91 ENGIan StannardGBRSky Procycling05:31:08  +  00:27:28=33,521 
92 AUSAdam HansenBELLotto Soudal05:34:38  +  00:30:58=33,171 
93 NEDDylan Van BaarleUSATeam Cannondale - Garmin05:34:38  +  00:30:58=33,171 
94 ITAMatteo BonoITALampre-Merida05:34:38  +  00:30:58=33,171 
95 HRVKristijan DurasekITALampre-Merida05:34:38  +  00:30:58=33,171 
96 POLBartosz HuzarskiDEUBora-Argon 1805:34:38  +  00:30:58=33,171 
97 FRAFlorian SénéchalFRACofidis – Solutions Crédits05:34:38  +  00:30:58=33,171 
98 FRAArnaud GérardFRABretagne - Séché Environnement05:34:38  +  00:30:58=33,171 
99 FRANicolas EdetFRACofidis – Solutions Crédits05:34:38  +  00:30:58=33,171 
100 ENGAdam YatesAUSOrica - GreenEDGE05:38:12  +  00:34:32=32,821 
101 COLJosé SerpaITALampre-Merida05:39:31  +  00:35:51=32,694 
102 CZEZdenek StybarBELEtixx - Quick Step05:39:31  +  00:35:51=32,694 
103 IOMMark CavendishBELEtixx - Quick Step05:39:31  +  00:35:51=32,694 
104 NEDRoy CurversDEUTeam Giant Alpecin05:39:31  +  00:35:51=32,694 
105 ENGStephen CummingsZAFMTN - Qhubeka P/B Samsung05:39:31  +  00:35:51=32,694 
106 BELJulien VermoteBELEtixx - Quick Step05:39:31  +  00:35:51=32,694 
107 GERJohn DegenkolbDEUTeam Giant Alpecin05:39:31  +  00:35:51=32,694 
108 FRASylvain ChavanelCHEIAM Cycling05:39:31  +  00:35:51=32,694 
109 ITAFilippo PozzatoITALampre-Merida05:39:31  +  00:35:51=32,694 
110 NEDAlbert TimmerDEUTeam Giant Alpecin05:39:31  +  00:35:51=32,694 
111 FRAAlexis VuillermozFRAAg2r La Mondiale05:39:31  +  00:35:51=32,694 
112 POLMichal GolasBELEtixx - Quick Step05:39:31  +  00:35:51=32,694 
113 FRAAlexandre GeniezFRAFDJ05:39:31  +  00:35:51=32,694 
114 FRABenoit VaugrenardFRAFDJ05:39:31  +  00:35:51=32,694 
115 GERPaul VossDEUBora-Argon 1805:39:31  +  00:35:51=32,694 
116 ESPRafael Valls FerriITALampre-Merida05:39:31  +  00:35:51=32,694 
117 ITAMatteo TrentinBELEtixx - Quick Step05:39:31  +  00:35:51=32,694 
118 FRAJulien SimonFRACofidis – Solutions Crédits05:39:31  +  00:35:51=32,694 
119 URSRamunas NavardauskasUSATeam Cannondale - Garmin05:39:31  +  00:35:51=32,694 
120 ERIMerhawi GhebremedhinZAFMTN - Qhubeka P/B Samsung05:39:31  +  00:35:51=32,694 
121 PORTiago PintoRUSTeam Katusha05:39:31  +  00:35:51=32,694 
122 NOREdvald Boasson HagenZAFMTN - Qhubeka P/B Samsung05:39:31  +  00:35:51=32,694 
123 GERAndré GreipelBELLotto Soudal05:39:31  +  00:35:51=32,694 
124 FRAArmindo FonsecaFRABretagne - Séché Environnement05:39:31  +  00:35:51=32,694 
125 ITAMatteo TosattoRUSTinkoff Saxo05:39:31  +  00:35:51=32,694 
126 ITAAdriano MaloriESPMovistar Team05:39:31  +  00:35:51=32,694 
127 FRATony GallopinBELLotto Soudal05:39:31  +  00:35:51=32,694 
128 FRABryan NauleauFRATeam Europcar05:39:31  +  00:35:51=32,694 
129 ERIDaniel TeklehaimanotZAFMTN - Qhubeka P/B Samsung05:39:31  +  00:35:51=32,694 
130 FRAAngelo TulikFRATeam Europcar05:39:31  +  00:35:51=32,694 
131 ITAJacopo GuarnieriRUSTeam Katusha05:39:31  +  00:35:51=32,694 
132 NEDPieter WeeningAUSOrica - GreenEDGE05:39:31  +  00:35:51=32,694 
133 ESPAlberto LosadaRUSTeam Katusha05:39:31  +  00:35:51=32,694 
134 COLRigoberto UranBELEtixx - Quick Step05:39:31  +  00:35:51=32,694 
135 FRAGeoffrey SoupeFRACofidis – Solutions Crédits05:39:31  +  00:35:51=32,694 
136 FRAChristophe LaporteFRACofidis – Solutions Crédits05:39:31  +  00:35:51=32,694 
137 SVKPeter SaganRUSTinkoff Saxo05:39:31  +  00:35:51=32,694 
138 GEREmanuel BuchmannDEUBora-Argon 1805:39:31  +  00:35:51=32,694 
139 ITADavide CimolaiITALampre-Merida05:39:31  +  00:35:51=32,694 
140 PORJosé João PimentaDEUBora-Argon 1805:39:31  +  00:35:51=32,694 
141 GERMarcel SiebergBELLotto Soudal05:39:31  +  00:35:51=32,694 
142 FRASébastien ChavanelFRAFDJ05:39:31  +  00:35:51=32,694 
143 FRABrice FeilluFRABretagne - Séché Environnement05:39:31  +  00:35:51=32,694 
144 FRAYohann GèneFRATeam Europcar05:39:31  +  00:35:51=32,694 
145 AUTMarco HallerRUSTeam Katusha05:39:31  +  00:35:51=32,694 
146 CANSvein TuftAUSOrica - GreenEDGE05:39:31  +  00:35:51=32,694 
147 BELKenneth VanbilsenFRACofidis – Solutions Crédits05:39:31  +  00:35:51=32,694 
148 AUSLuke DurbridgeAUSOrica - GreenEDGE05:39:31  +  00:35:51=32,694 
149 BELStijn DevolderUSATrek Factory Racing05:39:31  +  00:35:51=32,694 
150 ESPDaniel NavarroFRACofidis – Solutions Crédits05:39:31  +  00:35:51=32,694 
151 NEDLaurens ten DamNLDTeam Lotto NL - Jumbo05:39:31  +  00:35:51=32,694 
152 BELJens DebusschereBELLotto Soudal05:39:31  +  00:35:51=32,694 
153 USATyler FarrarZAFMTN - Qhubeka P/B Samsung05:39:31  +  00:35:51=32,694 
154 GERSimon GeschkeDEUTeam Giant Alpecin05:39:31  +  00:35:51=32,694 
155 NEDJos Van EmdenNLDTeam Lotto NL - Jumbo05:39:31  +  00:35:51=32,694 
156 NEDTom LeezerNLDTeam Lotto NL - Jumbo05:39:31  +  00:35:51=32,694 
157 NORAlexander KristoffRUSTeam Katusha05:39:31  +  00:35:51=32,694 
158 FRAArnaud DémareFRAFDJ05:39:31  +  00:35:51=32,694 
159 AUTMatthias BrändleCHEIAM Cycling05:39:31  +  00:35:51=32,694 
160 FRABryan CoquardFRATeam Europcar05:39:31  +  00:35:51=32,694 
161 FRADamien GaudinFRAAg2r La Mondiale05:39:31  +  00:35:51=32,694 

Withdrawls: 2
 
Rider
Team
Reason
115  AUSMark RenshawBELEtixx - Quick StepDid not finish
218  RSALouis MeintjesZAFMTN - Qhubeka P/B SamsungDid not start

Todays birthdays.

1890  Maurice Lartigue
1892  Mosé Arosio
1896  Henri Drapel
1919  Bernardo Capo
1920  Kléber Piot
1926  Victorio Garcia
1946  Lucien Van Impe
1946  Pierfranco Vianelli
1948  Jacques Boulas
1948  Yves Hézard
1962  Jan Goessens
1962  Jens Veggerby
1980  Patrik Sinkewitz
1986  Wesley Sulzberger